Location: Vinland
(47.7731°N, 122.6974°W)
Time: 02:09:05
(UTC+00:00)

Transit 4A - Pass Details

Date: 06 April 2023
Orbit: 864 x 979 km, 66.8° (Epoch: 29 May)

Event Time Altitude Azimuth Distance (km) Brightness Sun altitude
Exits shadow 12:49:32 10° 236° (WSW) 2,516 9.5 -8.9°
Maximum altitude 12:55:11 51° 312° (NW) 1,108 8.2 -8.0°
Drops below altitude 10° 13:01:01 10° 28° (NNE) 2,591 11.0 -7.1°
Sets 13:03:39 0° 34° (NNE) 3,554 11.8 -6.7°
